DW8873 Weather Reports


Display with metric or nautical units.
time (UTC)temp
F
wind
direction
speed
MPH
gust
MPH
rain 1hr
in
rain 24hr
in
rain mn
in
humidity
%
barometer
mb
20260509223231 58 252 1.0 4.0 0.00 0.00 0.00 80 1028.4
20260509222229 58 310 1.0 3.0 0.00 0.00 0.00 84 1028.4
20260509221228 57 295 1.0 3.0 0.00 0.00 0.00 85 1028.1
20260509220227 56 64 1.0 3.0 0.00 0.00 0.00 89 1028.1
20260509215154 55 332 1.0 1.0 0.00 0.00 0.00 91 1028.1
20260509214152 54 332 0.0 1.0 0.00 0.00 0.00 92 1028.1
20260509213150 53 332 0.0 1.0 0.00 0.00 0.00 93 1028.1
20260509212148 53 330 0.0 1.0 0.00 0.00 0.00 93 1027.8
20260509211147 52 330 0.0 2.0 0.00 0.00 0.00 93 1027.4
20260509210145 51 330 0.0 2.0 0.00 0.00 0.00 93 1027.4
20260509205143 51 330 1.0 2.0 0.00 0.00 0.00 93 1027.4
20260509204142 51 330 1.0 1.0 0.00 0.00 0.00 93 1027.1
20260509203140 51 330 0.0 0.0 0.00 0.00 0.00 93 1027.1
20260509202107 51 330 0.0 0.0 0.00 0.00 0.00 93 1027.1
20260509201106 51 330 0.0 0.0 0.00 0.00 0.00 92 1027.1
20260509200104 51 330 0.0 0.0 0.00 0.00 0.00 92 1026.8
20260509195102 51 330 0.0 0.0 0.00 0.00 0.00 92 1026.8
20260509194101 51 330 0.0 0.0 0.00 0.00 0.00 92 1026.4
20260509193100 51 330 0.0 0.0 0.00 0.00 0.00 92 1026.4
20260509192058 51 330 0.0 1.0 0.00 0.00 0.00 92 1026.4
20260509191057 51 330 0.0 1.0 0.00 0.00 0.00 92 1026.1
20260509190055 51 330 0.0 0.0 0.00 0.00 0.00 92 1026.1
20260509185053 51 330 0.0 1.0 0.00 0.00 0.00 92 1025.7
20260509184051 52 330 1.0 1.0 0.00 0.00 0.00 92 1025.7
20260509183050 52 330 0.0 2.0 0.00 0.00 0.00 93 1025.7
20260509182048 51 330 1.0 2.0 0.00 0.00 0.00 93 1025.7
20260509181047 51 330 1.0 3.0 0.00 0.00 0.00 93 1025.7
20260509180045 51 330 1.0 3.0 0.00 0.00 0.00 93 1025.4
20260509175044 51 86 0.0 1.0 0.00 0.00 0.00 92 1025.7
20260509174042 51 86 0.0 1.0 0.00 0.00 0.00 93 1025.4
20260509173040 51 86 0.0 1.0 0.00 0.00 0.00 93 1025.4
20260509172038 51 86 0.0 0.0 0.00 0.00 0.00 93 1025.4
20260509171006 51 86 0.0 1.0 0.00 0.00 0.00 93 1025.4
20260509170004 51 86 0.0 1.0 0.00 0.00 0.00 93 1025.4
20260509165003 51 86 0.0 1.0 0.00 0.00 0.00 92 1025.4
20260509164001 51 86 1.0 1.0 0.00 0.00 0.00 92 1025.4
20260509162959 52 86 0.0 0.0 0.00 0.00 0.00 92 1025.4
20260509161958 52 86 0.0 2.0 0.00 0.00 0.00 92 1025.4
20260509160925 52 86 1.0 2.0 0.00 0.00 0.00 92 1025.4
20260509155924 52 86 0.0 1.0 0.00 0.00 0.00 92 1025.4
20260509154923 52 86 0.0 2.0 0.00 0.00 0.00 92 1025.4
20260509153921 52 86 1.0 2.0 0.00 0.00 0.00 92 1025.4
20260509152920 52 86 0.0 1.0 0.00 0.00 0.00 92 1025.8
20260509151919 52 86 0.0 1.0 0.00 0.00 0.00 92 1025.8
20260509150917 52 86 0.0 2.0 0.00 0.00 0.00 92 1025.8
20260509145915 52 86 0.0 1.0 0.00 0.00 0.00 91 1025.8
20260509144914 52 86 0.0 1.0 0.00 0.00 0.00 91 1025.8
20260509143913 53 86 1.0 1.0 0.00 0.00 0.00 91 1025.5
20260509142911 53 86 0.0 1.0 0.00 0.00 0.00 91 1025.8
20260509141838 53 86 1.0 1.0 0.00 0.00 0.00 91 1025.4
20260509140836 53 86 1.0 1.0 0.00 0.00 0.00 91 1025.4
20260509135834 53 86 0.0 1.0 0.00 0.00 0.00 91 1025.8
20260509134832 53 86 0.0 1.0 0.00 0.00 0.00 90 1025.8
20260509133831 53 86 0.0 1.0 0.00 0.00 0.00 91 1025.8
20260509132830 53 86 0.0 1.0 0.00 0.00 0.00 90 1025.8
20260509131828 54 86 0.0 1.0 0.00 0.00 0.00 90 1025.8
20260509130827 54 86 1.0 1.0 0.00 0.00 0.00 89 1025.8
20260509125825 54 86 1.0 1.0 0.00 0.00 0.00 89 1025.8
20260509124824 54 86 0.0 1.0 0.00 0.00 0.00 89 1025.8
20260509123822 54 86 0.0 0.0 0.00 0.00 0.00 89 1025.8
20260509122749 54 86 0.0 1.0 0.00 0.00 0.00 88 1025.8
20260509121716 54 86 0.0 1.0 0.00 0.00 0.00 89 1025.8
20260509120643 55 86 0.0 1.0 0.00 0.00 0.00 88 1025.8
20260509115611 55 86 0.0 1.0 0.00 0.00 0.00 88 1025.8
20260509114609 55 86 0.0 1.0 0.00 0.00 0.00 87 1025.8
20260509113607 55 86 0.0 1.0 0.00 0.00 0.00 87 1025.4
20260509112606 55 86 0.0 1.0 0.00 0.00 0.00 87 1025.4
20260509111605 56 86 0.0 1.0 0.00 0.00 0.00 86 1025.4
20260509110603 56 86 0.0 0.0 0.00 0.00 0.00 85 1025.4
20260509105602 56 86 0.0 0.0 0.00 0.00 0.00 85 1025.4
20260509104600 56 86 0.0 0.0 0.00 0.00 0.00 84 1025.4
20260509103559 57 86 0.0 0.0 0.00 0.00 0.00 84 1025.4
20260509102557 57 86 0.0 0.0 0.00 0.00 0.00 84 1025.4
20260509101556 57 86 0.0 0.0 0.00 0.00 0.00 83 1025.1
20260509100555 58 86 0.0 0.0 0.00 0.00 0.00 82 1025.1
20260509095522 58 86 0.0 0.0 0.00 0.00 0.00 82 1025.1
20260509094520 58 86 0.0 0.0 0.00 0.00 0.00 81 1025.1
20260509093519 58 86 0.0 1.0 0.00 0.00 0.00 79 1024.7
20260509092517 59 86 0.0 1.0 0.00 0.00 0.00 77 1024.7
20260509091515 59 86 0.0 0.0 0.00 0.00 0.00 76 1024.7
20260509090513 60 86 0.0 2.0 0.00 0.00 0.00 74 1024.4
20260509085441 60 86 0.0 2.0 0.00 0.00 0.00 72 1024.4
20260509084440 61 86 0.0 0.0 0.00 0.00 0.00 71 1024.4
20260509083336 61 86 0.0 0.0 0.00 0.00 0.00 69 1024.1
20260509082334 62 86 0.0 0.0 0.00 0.00 0.00 67 1024.1
20260509081333 63 86 0.0 3.0 0.00 0.00 0.00 66 1024.1
20260509080331 63 86 0.0 3.0 0.00 0.00 0.00 65 1023.7
20260509075330 64 86 0.0 1.0 0.00 0.00 0.00 64 1023.7
20260509074329 64 86 0.0 2.0 0.00 0.00 0.00 64 1023.7
20260509073327 64 86 0.0 7.0 0.00 0.00 0.00 64 1023.4
20260509072325 64 90 3.0 7.0 0.00 0.00 0.00 63 1023.4
20260509071323 65 81 2.0 6.0 0.00 0.00 0.00 64 1023.4
20260509070321 65 85 2.0 6.0 0.00 0.00 0.00 63 1023.4
20260509065248 65 118 2.0 7.0 0.00 0.00 0.00 62 1023.1
20260509064246 65 87 2.0 7.0 0.00 0.00 0.00 63 1023.1
20260509063245 66 105 2.0 7.0 0.00 0.00 0.00 63 1022.7
20260509062243 66 111 2.0 5.0 0.00 0.00 0.00 64 1022.7
20260509061241 66 115 3.0 6.0 0.00 0.00 0.00 60 1022.7
20260509060240 66 102 2.0 8.0 0.00 0.00 0.00 60 1022.7
20260509055238 66 85 4.0 8.0 0.00 0.00 0.00 60 1022.4
20260509054237 67 144 2.0 9.0 0.00 0.00 0.00 57 1022.4
20260509053205 67 130 3.0 9.0 0.00 0.00 0.00 56 1022.4
20260509052203 67 111 1.0 8.0 0.00 0.00 0.00 57 1022.4
20260509051202 67 131 2.0 9.0 0.00 0.00 0.00 57 1022.4
20260509050200 68 96 3.0 9.0 0.00 0.00 0.00 55 1022.4
20260509045158 69 80 3.0 7.0 0.00 0.00 0.00 54 1022.1
20260509044156 69 130 2.0 6.0 0.00 0.00 0.00 53 1022.1
20260509043155 69 119 2.0 8.0 0.00 0.00 0.00 54 1022.1
20260509042153 70 119 2.0 8.0 0.00 0.00 0.00 54 1022.1
20260509041121 70 111 2.0 7.0 0.00 0.00 0.00 51 1022.1
20260509040120 70 111 3.0 4.0 0.00 0.00 0.00 51 1022.1
20260509035047 70 100 1.0 3.0 0.00 0.00 0.00 51 1022.1
20260509034045 70 130 1.0 5.0 0.00 0.00 0.00 52 1022.1
20260509033044 70 96 2.0 8.0 0.00 0.00 0.00 51 1022.4
20260509032011 70 118 2.0 7.0 0.00 0.00 0.00 53 1022.4
20260509030938 70 114 2.0 7.0 0.00 0.00 0.00 52 1022.4
20260509025937 70 95 2.0 5.0 0.00 0.00 0.00 51 1022.4
20260509024935 72 90 1.0 6.0 0.00 0.00 0.00 51 1022.8
20260509023933 73 162 1.0 3.0 0.00 0.00 0.00 46 1022.8
20260509022932 73 174 1.0 3.0 0.00 0.00 0.00 44 1022.8
20260509021930 73 218 1.0 3.0 0.00 0.00 0.00 44 1023.1
20260509020928 72 256 1.0 3.0 0.00 0.00 0.00 45 1023.1
20260509015855 72 276 1.0 3.0 0.00 0.00 0.00 47 1023.4
20260509014821 72 261 1.0 3.0 0.00 0.00 0.00 48 1023.4
20260509013820 71 266 1.0 3.0 0.00 0.00 0.00 49 1023.8
20260509012818 71 299 1.0 3.0 0.00 0.00 0.00 50 1023.8
20260509011817 70 206 1.0 3.0 0.00 0.00 0.00 49 1023.8
20260509010815 70 196 1.0 3.0 0.00 0.00 0.00 51 1023.8
20260509005814 69 345 1.0 3.0 0.00 0.00 0.00 52 1024.1
20260509004812 69 286 1.0 3.0 0.00 0.00 0.00 52 1024.1
20260509003811 69 292 1.0 3.0 0.00 0.00 0.00 51 1024.1
20260509002810 68 228 2.0 3.0 0.00 0.00 0.00 53 1024.4
20260509001808 67 311 2.0 3.0 0.00 0.00 0.00 55 1024.1
20260509000736 67 166 1.0 4.0 0.00 0.00 0.00 56 1024.4
20260508235735 67 169 2.0 4.0 0.00 0.00 0.00 56 1024.4
20260508234733 66 273 0.0 3.0 0.00 0.00 0.00 58 1024.4
20260508233731 66 235 1.0 3.0 0.00 0.00 0.00 60 1024.4
20260508232729 65 247 1.0 7.0 0.00 0.00 0.00 62 1024.4
20260508231728 64 276 2.0 7.0 0.00 0.00 0.00 63 1024.4
20260508230726 64 304 1.0 3.0 0.00 0.00 0.00 63 1024.4
20260508225724 63 346 2.0 3.0 0.00 0.00 0.00 66 1024.4
20260508224722 62 209 1.0 4.0 0.00 0.00 0.00 66 1024.4